User: anonymous   Login
Location: Unspecified
(0.0000°N, 0.0000°E)
Time: 18:50:18
(UTC+00:00)
Language:

NTS 1 - Orbit

View from above orbital plane
View from above orbital plane
View from above satellite
View from above satellite

Ground track
Ground track

The orbit data is extracted from the following two-line orbital elements,

1  7369U 74054A   17145.38164177 +.00000007 +00000-0 +00000-0 0  9997
2  7369 124.8927 251.6262 0075129 241.4889 150.9426 03.07214167480936
Epoch (UTC): 25 May 2017 09:09:33
Eccentricity: 0.0075129
inclination: 124.8927°
perigee height: 13460 km
apogee height: 13760 km
right ascension of ascending node: 251.6262°
argument of perigee: 241.4889°
revolutions per day: 3.07214167
mean anomaly at epoch: 150.9426°
orbit number at epoch: 48093

The dashed part of the orbit path shows where the satellite is in the earth's shadow,  

DLR